Time,TemperatureF,DewpointF,PressureIn,WindDirection,WindDirectionDegrees,WindSpeedMPH,WindSpeedGustMPH,Humidity,HourlyPrecipIn,Conditions,Clouds,dailyrainin,SoftwareType,DateUTC
2013-06-29 00:14:00,72.0,70.0,29.58,WSW,245,0.0,0.0,92,0.00,,,0.00,weatherlink.com 1.10,2013-06-29 05:14:00,
2013-06-29 00:29:00,71.9,70.0,29.59,WSW,245,0.0,0.0,92,0.00,,,0.00,weatherlink.com 1.10,2013-06-29 05:29:00,
2013-06-29 00:44:00,71.8,69.0,29.58,WSW,245,0.0,0.0,92,0.00,,,0.00,weatherlink.com 1.10,2013-06-29 05:44:00,
2013-06-29 00:59:00,71.5,69.0,29.58,WSW,245,0.0,0.0,92,0.00,,,0.00,weatherlink.com 1.10,2013-06-29 05:59:00,
2013-06-29 01:14:00,71.3,69.0,29.58,WSW,245,0.0,0.0,92,0.00,,,0.00,weatherlink.com 1.10,2013-06-29 06:14:00,
2013-06-29 01:29:00,71.1,69.0,29.57,WSW,245,0.0,0.0,93,0.00,,,0.00,weatherlink.com 1.10,2013-06-29 06:29:00,
2013-06-29 01:44:00,70.9,69.0,29.58,WSW,245,0.0,0.0,93,0.00,,,0.00,weatherlink.com 1.10,2013-06-29 06:44:00,
2013-06-29 01:59:00,70.9,69.0,29.59,WSW,245,0.0,0.0,94,0.00,,,0.00,weatherlink.com 1.10,2013-06-29 06:59:00,
2013-06-29 02:14:00,70.7,69.0,29.59,WSW,245,0.0,0.0,94,0.00,,,0.00,weatherlink.com 1.10,2013-06-29 07:14:00,
2013-06-29 02:29:00,70.6,69.0,29.59,WSW,245,0.0,0.0,94,0.00,,,0.00,weatherlink.com 1.10,2013-06-29 07:29:00,
2013-06-29 02:44:00,70.6,69.0,29.58,WSW,245,0.0,0.0,94,0.00,,,0.00,weatherlink.com 1.10,2013-06-29 07:44:00,
2013-06-29 02:59:00,70.7,69.0,29.58,WSW,245,0.0,0.0,94,0.00,,,0.00,weatherlink.com 1.10,2013-06-29 07:59:00,
2013-06-29 03:14:00,70.9,69.0,29.58,WSW,245,0.0,0.0,94,0.00,,,0.00,weatherlink.com 1.10,2013-06-29 08:14:00,
2013-06-29 03:29:00,70.8,69.0,29.58,WSW,245,0.0,0.0,94,0.00,,,0.00,weatherlink.com 1.10,2013-06-29 08:29:00,
2013-06-29 03:44:00,70.8,69.0,29.58,WSW,245,0.0,0.0,95,0.00,,,0.00,weatherlink.com 1.10,2013-06-29 08:44:00,
2013-06-29 03:59:00,70.8,69.0,29.58,WSW,245,0.0,0.0,95,0.00,,,0.00,weatherlink.com 1.10,2013-06-29 08:59:00,
2013-06-29 04:14:00,70.8,69.0,29.59,WSW,245,0.0,0.0,95,0.00,,,0.00,weatherlink.com 1.10,2013-06-29 09:14:00,
2013-06-29 04:29:00,70.9,70.0,29.58,WSW,245,0.0,0.0,95,0.00,,,0.00,weatherlink.com 1.10,2013-06-29 09:29:00,
2013-06-29 04:44:00,70.9,70.0,29.58,WSW,245,0.0,0.0,95,0.00,,,0.00,weatherlink.com 1.10,2013-06-29 09:44:00,
2013-06-29 04:59:00,71.1,70.0,29.58,WSW,245,0.0,0.0,95,0.00,,,0.00,weatherlink.com 1.10,2013-06-29 09:59:00,
2013-06-29 05:14:00,71.3,70.0,29.58,WSW,245,0.0,0.0,95,0.00,,,0.00,weatherlink.com 1.10,2013-06-29 10:14:00,
2013-06-29 05:29:00,71.3,70.0,29.58,WSW,245,0.0,0.0,95,0.00,,,0.00,weatherlink.com 1.10,2013-06-29 10:29:00,
2013-06-29 05:44:00,71.2,70.0,29.58,WSW,245,0.0,0.0,95,0.00,,,0.00,weatherlink.com 1.10,2013-06-29 10:44:00,
2013-06-29 05:59:00,70.9,70.0,29.58,WSW,245,0.0,0.0,95,0.00,,,0.00,weatherlink.com 1.10,2013-06-29 10:59:00,
2013-06-29 06:14:00,70.8,69.0,29.58,WSW,245,0.0,0.0,95,0.00,,,0.00,weatherlink.com 1.10,2013-06-29 11:14:00,
2013-06-29 06:29:00,70.8,69.0,29.58,WSW,245,0.0,0.0,95,0.00,,,0.00,weatherlink.com 1.10,2013-06-29 11:29:00,
2013-06-29 06:44:00,70.8,69.0,29.58,WSW,245,0.0,0.0,95,0.00,,,0.00,weatherlink.com 1.10,2013-06-29 11:44:00,
2013-06-29 06:59:00,71.1,70.0,29.58,WSW,245,0.0,0.0,95,0.00,,,0.00,weatherlink.com 1.10,2013-06-29 11:59:00,
2013-06-29 07:14:00,71.4,70.0,29.59,WSW,245,0.0,0.0,95,0.00,,,0.00,weatherlink.com 1.10,2013-06-29 12:14:00,
2013-06-29 07:29:00,71.8,71.0,29.59,WSW,245,0.0,0.0,96,0.00,,,0.00,weatherlink.com 1.10,2013-06-29 12:29:00,
2013-06-29 07:44:00,72.1,71.0,29.59,WSW,245,0.0,0.0,95,0.00,,,0.00,weatherlink.com 1.10,2013-06-29 12:44:00,
2013-06-29 07:59:00,72.5,70.0,29.59,West,267,0.0,0.0,93,0.00,,,0.00,weatherlink.com 1.10,2013-06-29 12:59:00,
2013-06-29 08:14:00,73.3,71.0,29.59,SSW,194,0.0,0.0,93,0.00,,,0.00,weatherlink.com 1.10,2013-06-29 13:14:00,
2013-06-29 08:29:00,74.1,71.0,29.60,North,351,0.0,0.0,89,0.00,,,0.00,weatherlink.com 1.10,2013-06-29 13:29:00,
2013-06-29 08:44:00,74.8,71.0,29.60,NNW,333,0.0,0.0,88,0.00,,,0.00,weatherlink.com 1.10,2013-06-29 13:44:00,
2013-06-29 08:59:00,75.7,72.0,29.59,NNW,333,0.0,0.0,87,0.00,,,0.00,weatherlink.com 1.10,2013-06-29 13:59:00,
2013-06-29 09:14:00,76.6,72.0,29.59,South,188,0.0,1.0,84,0.00,,,0.00,weatherlink.com 1.10,2013-06-29 14:14:00,
2013-06-29 09:29:00,77.2,71.0,29.59,West,276,0.0,1.0,82,0.00,,,0.00,weatherlink.com 1.10,2013-06-29 14:29:00,
2013-06-29 09:44:00,78.0,71.0,29.59,South,178,0.0,0.0,79,0.00,,,0.00,weatherlink.com 1.10,2013-06-29 14:44:00,
2013-06-29 09:59:00,78.7,71.0,29.59,SSW,196,0.0,0.0,77,0.00,,,0.00,weatherlink.com 1.10,2013-06-29 14:59:00,
2013-06-29 10:14:00,79.7,71.0,29.60,West,273,0.0,0.0,74,0.00,,,0.00,weatherlink.com 1.10,2013-06-29 15:14:00,
2013-06-29 10:29:00,80.5,71.0,29.60,WNW,292,0.0,1.0,72,0.00,,,0.00,weatherlink.com 1.10,2013-06-29 15:29:00,
2013-06-29 10:44:00,80.9,70.0,29.59,WSW,252,0.0,1.0,69,0.00,,,0.00,weatherlink.com 1.10,2013-06-29 15:44:00,
2013-06-29 11:00:00,81.8,68.0,29.59,WSW,250,0.0,1.0,64,0.00,,,0.00,weatherlink.com 1.10,2013-06-29 16:00:00,
2013-06-29 11:15:00,82.1,69.0,29.59,NNW,347,0.0,3.0,65,0.00,,,0.00,weatherlink.com 1.10,2013-06-29 16:15:00,
2013-06-29 11:30:00,82.6,69.0,29.59,SW,231,0.0,3.0,63,0.00,,,0.00,weatherlink.com 1.10,2013-06-29 16:30:00,
2013-06-29 11:45:00,83.6,68.0,29.59,North,360,0.0,4.0,60,0.00,,,0.00,weatherlink.com 1.10,2013-06-29 16:45:00,
2013-06-29 12:00:00,83.9,68.0,29.59,NW,315,0.0,2.0,59,0.00,,,0.00,weatherlink.com 1.10,2013-06-29 17:00:00,
2013-06-29 12:15:00,84.7,68.0,29.59,West,281,0.0,2.0,57,0.00,,,0.00,weatherlink.com 1.10,2013-06-29 17:15:00,
2013-06-29 12:30:00,85.8,66.0,29.59,NW,326,4.0,5.0,51,0.00,,,0.00,weatherlink.com 1.10,2013-06-29 17:30:00,
2013-06-29 12:45:00,83.8,67.0,29.58,NNW,346,0.0,4.0,57,0.00,,,0.00,weatherlink.com 1.10,2013-06-29 17:45:00,
2013-06-29 13:00:00,85.2,67.0,29.58,WSW,240,0.0,2.0,54,0.00,,,0.00,weatherlink.com 1.10,2013-06-29 18:00:00,
2013-06-29 13:15:00,85.2,67.0,29.58,West,266,0.0,1.0,54,0.00,,,0.00,weatherlink.com 1.10,2013-06-29 18:15:00,
2013-06-29 13:30:00,84.0,68.0,29.58,SSE,165,0.0,0.0,58,0.00,,,0.00,weatherlink.com 1.10,2013-06-29 18:30:00,
2013-06-29 13:45:00,85.9,65.0,29.57,NW,304,0.0,5.0,50,0.00,,,0.00,weatherlink.com 1.10,2013-06-29 18:45:00,
2013-06-29 14:00:00,85.0,65.0,29.57,NNW,334,2.0,6.0,52,0.00,,,0.00,weatherlink.com 1.10,2013-06-29 19:00:00,
2013-06-29 14:15:00,85.2,64.0,29.57,NW,323,0.0,3.0,50,0.00,,,0.00,weatherlink.com 1.10,2013-06-29 19:15:00,
2013-06-29 14:30:00,85.5,65.0,29.57,NW,307,0.0,4.0,50,0.00,,,0.00,weatherlink.com 1.10,2013-06-29 19:30:00,
2013-06-29 14:45:00,86.0,67.0,29.57,NW,317,0.0,2.0,53,0.00,,,0.00,weatherlink.com 1.10,2013-06-29 19:45:00,
2013-06-29 15:00:00,86.1,62.0,29.57,NW,317,1.0,7.0,45,0.00,,,0.00,weatherlink.com 1.10,2013-06-29 20:00:00,
2013-06-29 15:15:00,86.2,62.0,29.56,WNW,298,1.0,9.0,45,0.00,,,0.00,weatherlink.com 1.10,2013-06-29 20:15:00,
2013-06-29 15:30:00,86.3,62.0,29.56,WSW,253,0.0,4.0,44,0.00,,,0.00,weatherlink.com 1.10,2013-06-29 20:30:00,
2013-06-29 15:45:00,86.9,63.0,29.56,NE,46,0.0,4.0,45,0.00,,,0.00,weatherlink.com 1.10,2013-06-29 20:45:00,
2013-06-29 16:00:00,86.6,63.0,29.55,NW,306,0.0,8.0,45,0.00,,,0.00,weatherlink.com 1.10,2013-06-29 21:00:00,
2013-06-29 16:15:00,85.7,63.0,29.55,NNW,336,4.0,6.0,47,0.00,,,0.00,weatherlink.com 1.10,2013-06-29 21:15:00,
2013-06-29 16:30:00,85.1,63.0,29.55,NW,325,0.0,7.0,48,0.00,,,0.00,weatherlink.com 1.10,2013-06-29 21:30:00,
2013-06-29 16:45:00,84.9,65.0,29.55,NW,321,0.0,5.0,51,0.00,,,0.00,weatherlink.com 1.10,2013-06-29 21:45:00,
2013-06-29 17:00:00,84.7,63.0,29.54,North,360,3.0,9.0,49,0.00,,,0.00,weatherlink.com 1.10,2013-06-29 22:00:00,
2013-06-29 17:15:00,84.4,63.0,29.54,WNW,285,0.0,4.0,48,0.00,,,0.00,weatherlink.com 1.10,2013-06-29 22:15:00,
2013-06-29 17:30:00,84.2,64.0,29.54,NW,322,0.0,3.0,50,0.00,,,0.00,weatherlink.com 1.10,2013-06-29 22:30:00,
2013-06-29 17:45:00,84.0,62.0,29.54,North,349,0.0,3.0,48,0.00,,,0.00,weatherlink.com 1.10,2013-06-29 22:45:00,
2013-06-29 18:00:00,83.6,64.0,29.54,NNW,343,0.0,2.0,51,0.00,,,0.00,weatherlink.com 1.10,2013-06-29 23:00:00,
2013-06-29 18:15:00,82.7,68.0,29.54,NNW,344,0.0,1.0,61,0.00,,,0.00,weatherlink.com 1.10,2013-06-29 23:15:00,
2013-06-29 18:30:00,81.6,68.0,29.54,North,351,0.0,1.0,64,0.00,,,0.00,weatherlink.com 1.10,2013-06-29 23:30:00,
2013-06-29 18:45:00,80.3,67.0,29.54,North,351,0.0,0.0,64,0.00,,,0.00,weatherlink.com 1.10,2013-06-29 23:45:00,
2013-06-29 19:00:00,79.3,68.0,29.54,North,351,0.0,0.0,69,0.00,,,0.00,weatherlink.com 1.10,2013-06-30 00:00:00,
2013-06-29 19:15:00,78.4,68.0,29.55,North,351,0.0,0.0,71,0.00,,,0.00,weatherlink.com 1.10,2013-06-30 00:15:00,
2013-06-29 19:30:00,77.4,68.0,29.55,North,351,0.0,0.0,72,0.00,,,0.00,weatherlink.com 1.10,2013-06-30 00:30:00,
2013-06-29 19:45:00,76.5,68.0,29.55,North,351,0.0,0.0,75,0.00,,,0.00,weatherlink.com 1.10,2013-06-30 00:45:00,
2013-06-29 20:00:00,75.6,68.0,29.55,North,351,0.0,0.0,76,0.00,,,0.00,weatherlink.com 1.10,2013-06-30 01:00:00,
2013-06-29 20:15:00,74.6,67.0,29.56,North,351,0.0,0.0,76,0.00,,,0.00,weatherlink.com 1.10,2013-06-30 01:15:00,
2013-06-29 20:30:00,73.6,66.0,29.56,North,351,0.0,0.0,77,0.00,,,0.00,weatherlink.com 1.10,2013-06-30 01:30:00,
2013-06-29 20:45:00,72.7,66.0,29.56,North,351,0.0,0.0,78,0.00,,,0.00,weatherlink.com 1.10,2013-06-30 01:45:00,
2013-06-29 21:00:00,71.8,65.0,29.57,North,351,0.0,0.0,80,0.00,,,0.00,weatherlink.com 1.10,2013-06-30 02:00:00,
2013-06-29 21:15:00,71.1,65.0,29.58,North,351,0.0,0.0,81,0.00,,,0.00,weatherlink.com 1.10,2013-06-30 02:15:00,
2013-06-29 21:30:00,70.4,65.0,29.59,North,351,0.0,0.0,82,0.00,,,0.00,weatherlink.com 1.10,2013-06-30 02:30:00,
2013-06-29 21:45:00,70.0,65.0,29.59,North,351,0.0,0.0,83,0.00,,,0.00,weatherlink.com 1.10,2013-06-30 02:45:00,
2013-06-29 22:00:00,69.8,65.0,29.59,North,351,0.0,0.0,84,0.00,,,0.00,weatherlink.com 1.10,2013-06-30 03:00:00,
2013-06-29 22:15:00,69.6,65.0,29.59,North,351,0.0,0.0,84,0.00,,,0.00,weatherlink.com 1.10,2013-06-30 03:15:00,
2013-06-29 22:30:00,69.4,65.0,29.59,North,351,0.0,0.0,85,0.00,,,0.00,weatherlink.com 1.10,2013-06-30 03:30:00,
2013-06-29 22:45:00,69.0,65.0,29.60,North,351,0.0,0.0,86,0.00,,,0.00,weatherlink.com 1.10,2013-06-30 03:45:00,
2013-06-29 23:00:00,68.7,65.0,29.59,North,351,0.0,0.0,87,0.00,,,0.00,weatherlink.com 1.10,2013-06-30 04:00:00,
2013-06-29 23:15:00,68.6,65.0,29.60,North,351,0.0,0.0,87,0.00,,,0.00,weatherlink.com 1.10,2013-06-30 04:15:00,
2013-06-29 23:30:00,68.4,64.0,29.60,North,351,0.0,0.0,87,0.00,,,0.00,weatherlink.com 1.10,2013-06-30 04:30:00,
2013-06-29 23:45:00,68.1,65.0,29.59,North,351,0.0,0.0,88,0.00,,,0.00,weatherlink.com 1.10,2013-06-30 04:45:00,